| time (UTC) | temp F | wind direction | speed MPH | gust MPH | rain 1hr in | rain 24hr in | rain mn in | humidity % | barometer mb |
| 20260504234500 | 68 | 150 | 7.0 | 11.0 | 0.00 | 0.00 | 0.00 | 54 | 1010.5 |
| 20260504234002 | 68 | 155 | 7.0 | 12.0 | 0.00 | 0.00 | 0.00 | 53 | 1010.4 |
| 20260504233500 | 68 | 154 | 9.0 | 18.0 | 0.00 | 0.00 | 0.00 | 52 | 1010.5 |
| 20260504233000 | 68 | 156 | 9.0 | 18.0 | 0.00 | 0.00 | 0.00 | 51 | 1010.5 |
| 20260504232504 | 69 | 162 | 10.0 | 14.0 | 0.00 | 0.00 | 0.00 | 51 | 1010.5 |
| 20260504232004 | 69 | 166 | 9.0 | 17.0 | 0.00 | 0.00 | 0.00 | 51 | 1010.3 |
| 20260504231504 | 69 | 164 | 12.0 | 17.0 | 0.00 | 0.00 | 0.00 | 51 | 1010.5 |
| 20260504231000 | 69 | 161 | 9.0 | 15.0 | 0.00 | 0.00 | 0.00 | 50 | 1010.5 |
| 20260504230005 | 70 | 138 | 9.0 | 12.0 | 0.00 | 0.00 | 0.00 | 50 | 1010.4 |
| 20260504225502 | 70 | 161 | 10.0 | 16.0 | 0.00 | 0.00 | 0.00 | 50 | 1010.5 |
| 20260504225004 | 70 | 171 | 10.0 | 16.0 | 0.00 | 0.00 | 0.00 | 50 | 1010.4 |
| 20260504223959 | 70 | 163 | 11.0 | 16.0 | 0.00 | 0.00 | 0.00 | 49 | 1010.5 |
| 20260504223500 | 71 | 169 | 13.0 | 16.0 | 0.00 | 0.00 | 0.00 | 49 | 1010.5 |
| 20260504223004 | 71 | 169 | 12.0 | 17.0 | 0.00 | 0.00 | 0.00 | 48 | 1010.5 |
| 20260504222502 | 71 | 161 | 12.0 | 16.0 | 0.00 | 0.00 | 0.00 | 48 | 1010.4 |
| 20260504222000 | 71 | 174 | 10.0 | 16.0 | 0.00 | 0.00 | 0.00 | 49 | 1010.4 |
| 20260504221504 | 71 | 170 | 9.0 | 15.0 | 0.00 | 0.00 | 0.00 | 48 | 1010.4 |
| 20260504220959 | 71 | 165 | 10.0 | 16.0 | 0.00 | 0.00 | 0.00 | 46 | 1010.4 |
| 20260504220504 | 71 | 175 | 11.0 | 19.0 | 0.00 | 0.00 | 0.00 | 45 | 1010.5 |
| 20260504220004 | 71 | 161 | 10.0 | 19.0 | 0.00 | 0.00 | 0.00 | 47 | 1010.6 |
| 20260504215004 | 71 | 174 | 10.0 | 19.0 | 0.00 | 0.00 | 0.00 | 46 | 1010.6 |
| 20260504214504 | 71 | 161 | 10.0 | 19.0 | 0.00 | 0.00 | 0.00 | 47 | 1010.5 |
| 20260504213504 | 72 | 157 | 14.0 | 22.0 | 0.00 | 0.00 | 0.00 | 40 | 1010.7 |
| 20260504213004 | 72 | 161 | 15.0 | 22.0 | 0.00 | 0.00 | 0.00 | 40 | 1010.7 |
| 20260504212505 | 72 | 155 | 12.0 | 16.0 | 0.00 | 0.00 | 0.00 | 42 | 1010.7 |
| 20260504212005 | 72 | 159 | 13.0 | 17.0 | 0.00 | 0.00 | 0.00 | 40 | 1010.7 |
| 20260504211504 | 72 | 170 | 13.0 | 17.0 | 0.00 | 0.00 | 0.00 | 42 | 1010.8 |
| 20260504211005 | 72 | 164 | 11.0 | 17.0 | 0.00 | 0.00 | 0.00 | 42 | 1010.9 |
| 20260504210504 | 71 | 141 | 9.0 | 17.0 | 0.00 | 0.00 | 0.00 | 42 | 1010.7 |
| 20260504210004 | 72 | 148 | 9.0 | 17.0 | 0.00 | 0.00 | 0.00 | 44 | 1010.7 |
| 20260504205504 | 72 | 150 | 11.0 | 17.0 | 0.00 | 0.00 | 0.00 | 43 | 1010.7 |
| 20260504205000 | 72 | 153 | 11.0 | 16.0 | 0.00 | 0.00 | 0.00 | 43 | 1010.8 |
| 20260504204505 | 73 | 126 | 10.0 | 16.0 | 0.00 | 0.00 | 0.00 | 44 | 1010.8 |
| 20260504203500 | 73 | 174 | 13.0 | 16.0 | 0.00 | 0.00 | 0.00 | 42 | 1010.8 |
| 20260504203004 | 73 | 157 | 13.0 | 18.0 | 0.00 | 0.00 | 0.00 | 43 | 1010.8 |
| 20260504202504 | 73 | 142 | 12.0 | 16.0 | 0.00 | 0.00 | 0.00 | 42 | 1010.9 |
| 20260504202004 | 73 | 177 | 13.0 | 19.0 | 0.00 | 0.00 | 0.00 | 41 | 1011.0 |
| 20260504201504 | 73 | 167 | 17.0 | 19.0 | 0.00 | 0.00 | 0.00 | 39 | 1010.9 |
| 20260504201000 | 73 | 176 | 15.0 | 20.0 | 0.00 | 0.00 | 0.00 | 39 | 1011.0 |
| 20260504200502 | 73 | 169 | 15.0 | 19.0 | 0.00 | 0.00 | 0.00 | 37 | 1011.1 |
| 20260504195504 | 74 | 154 | 13.0 | 16.0 | 0.00 | 0.00 | 0.00 | 39 | 1011.2 |
| 20260504195004 | 74 | 170 | 11.0 | 16.0 | 0.00 | 0.00 | 0.00 | 38 | 1011.3 |
| 20260504194505 | 74 | 142 | 14.0 | 18.0 | 0.00 | 0.00 | 0.00 | 39 | 1011.3 |
| 20260504194004 | 74 | 167 | 12.0 | 18.0 | 0.00 | 0.00 | 0.00 | 41 | 1011.3 |
| 20260504193504 | 73 | 174 | 13.0 | 17.0 | 0.00 | 0.00 | 0.00 | 37 | 1011.5 |
| 20260504193004 | 73 | 176 | 14.0 | 19.0 | 0.00 | 0.00 | 0.00 | 38 | 1011.7 |
| 20260504192505 | 74 | 162 | 13.0 | 16.0 | 0.00 | 0.00 | 0.00 | 38 | 1011.7 |
| 20260504192005 | 73 | 169 | 13.0 | 14.0 | 0.00 | 0.00 | 0.00 | 40 | 1011.6 |
| 20260504191504 | 73 | 181 | 9.0 | 15.0 | 0.00 | 0.00 | 0.00 | 45 | 1011.6 |
| 20260504191005 | 73 | 180 | 10.0 | 16.0 | 0.00 | 0.00 | 0.00 | 44 | 1011.7 |
| 20260504190504 | 73 | 184 | 13.0 | 17.0 | 0.00 | 0.00 | 0.00 | 43 | 1011.7 |
| 20260504190005 | 73 | 183 | 10.0 | 14.0 | 0.00 | 0.00 | 0.00 | 41 | 1011.7 |
| 20260504185504 | 73 | 185 | 11.0 | 14.0 | 0.00 | 0.00 | 0.00 | 42 | 1011.9 |
| 20260504185004 | 73 | 194 | 8.0 | 12.0 | 0.00 | 0.00 | 0.00 | 44 | 1012.0 |
| 20260504184505 | 73 | 201 | 9.0 | 10.0 | 0.00 | 0.00 | 0.00 | 44 | 1012.0 |
| 20260504184004 | 72 | 187 | 6.0 | 8.0 | 0.00 | 0.00 | 0.00 | 40 | 1012.0 |
| 20260504183504 | 72 | 192 | 6.0 | 8.0 | 0.00 | 0.00 | 0.00 | 41 | 1012.1 |
| 20260504183004 | 72 | 188 | 6.0 | 8.0 | 0.00 | 0.00 | 0.00 | 37 | 1012.2 |
| 20260504182505 | 72 | 184 | 6.0 | 7.0 | 0.00 | 0.00 | 0.00 | 42 | 1012.2 |
| 20260504182005 | 72 | 190 | 6.0 | 9.0 | 0.00 | 0.00 | 0.00 | 42 | 1012.2 |
| 20260504181505 | 72 | 188 | 7.0 | 11.0 | 0.00 | 0.00 | 0.00 | 43 | 1012.4 |
| 20260504181004 | 72 | 189 | 8.0 | 11.0 | 0.00 | 0.00 | 0.00 | 44 | 1012.5 |
| 20260504180504 | 72 | 188 | 7.0 | 11.0 | 0.00 | 0.00 | 0.00 | 46 | 1012.6 |
| 20260504180004 | 72 | 193 | 8.0 | 11.0 | 0.00 | 0.00 | 0.00 | 44 | 1012.6 |
| 20260504175503 | 72 | 195 | 9.0 | 12.0 | 0.00 | 0.00 | 0.00 | 47 | 1012.7 |
| 20260504175004 | 71 | 190 | 10.0 | 10.0 | 0.00 | 0.00 | 0.00 | 44 | 1012.6 |
| 20260504174504 | 71 | 192 | 9.0 | 13.0 | 0.00 | 0.00 | 0.00 | 44 | 1012.7 |
| 20260504174000 | 71 | 191 | 10.0 | 13.0 | 0.00 | 0.00 | 0.00 | 41 | 1012.7 |
| 20260504173500 | 70 | 188 | 11.0 | 13.0 | 0.00 | 0.00 | 0.00 | 40 | 1012.8 |
| 20260504173003 | 71 | 181 | 10.0 | 13.0 | 0.00 | 0.00 | 0.00 | 41 | 1012.8 |
| 20260504172504 | 70 | 194 | 9.0 | 12.0 | 0.00 | 0.00 | 0.00 | 44 | 1013.0 |
| 20260504172000 | 69 | 192 | 6.0 | 10.0 | 0.00 | 0.00 | 0.00 | 42 | 1013.0 |
| 20260504171503 | 69 | 200 | 8.0 | 10.0 | 0.00 | 0.00 | 0.00 | 41 | 1013.1 |
| 20260504171004 | 69 | 176 | 5.0 | 6.0 | 0.00 | 0.00 | 0.00 | 41 | 1013.0 |
| 20260504170500 | 69 | 186 | 4.0 | 5.0 | 0.00 | 0.00 | 0.00 | 41 | 1013.1 |
| 20260504151004 | 64 | 185 | 5.0 | 7.0 | 0.00 | 0.00 | 0.00 | 49 | 1014.1 |
| 20260504150504 | 63 | 184 | 4.0 | 7.0 | 0.00 | 0.00 | 0.00 | 54 | 1014.2 |
| 20260504141000 | 63 | 215 | 9.0 | 14.0 | 0.00 | 0.00 | 0.00 | 54 | 1014.1 |
| 20260504140504 | 63 | 219 | 9.0 | 12.0 | 0.00 | 0.00 | 0.00 | 52 | 1014.1 |
| 20260504130501 | 60 | 196 | 10.0 | 13.0 | 0.00 | 0.00 | 0.00 | 61 | 1014.7 |
| 20260504110500 | 55 | 181 | 12.0 | 14.0 | 0.00 | 0.00 | 0.00 | 68 | 1015.7 |
| 20260504100459 | 55 | 195 | 11.0 | 15.0 | 0.00 | 0.00 | 0.00 | 72 | 1015.6 |
| 20260504081500 | 55 | 184 | 14.0 | 17.0 | 0.00 | 0.00 | 0.00 | 70 | 1015.5 |
| 20260504081000 | 55 | 164 | 13.0 | 19.0 | 0.00 | 0.00 | 0.00 | 70 | 1015.6 |
| 20260504080504 | 55 | 171 | 17.0 | 19.0 | 0.00 | 0.00 | 0.00 | 68 | 1015.7 |
| 20260504050500 | 54 | 158 | 8.0 | 14.0 | 0.00 | 0.00 | 0.00 | 73 | 1015.8 |
| 20260504050004 | 54 | 154 | 11.0 | 14.0 | 0.00 | 0.00 | 0.00 | 73 | 1016.0 |
| 20260504045505 | 54 | 176 | 14.0 | 18.0 | 0.00 | 0.00 | 0.00 | 73 | 1016.0 |
| 20260504045004 | 54 | 178 | 15.0 | 18.0 | 0.00 | 0.00 | 0.00 | 72 | 1016.1 |
| 20260504044505 | 53 | 176 | 15.0 | 16.0 | 0.00 | 0.00 | 0.00 | 71 | 1016.0 |
| 20260504044005 | 53 | 173 | 13.0 | 17.0 | 0.00 | 0.00 | 0.00 | 70 | 1016.0 |
| 20260504043005 | 54 | 162 | 12.0 | 15.0 | 0.00 | 0.00 | 0.00 | 68 | 1016.1 |
| 20260504042504 | 53 | 183 | 14.0 | 15.0 | 0.00 | 0.00 | 0.00 | 67 | 1016.0 |
| 20260504042005 | 53 | 186 | 14.0 | 15.0 | 0.00 | 0.00 | 0.00 | 67 | 1016.0 |
| 20260504041504 | 54 | 178 | 13.0 | 17.0 | 0.00 | 0.00 | 0.00 | 67 | 1015.9 |
| 20260504041005 | 54 | 179 | 12.0 | 13.0 | 0.00 | 0.00 | 0.00 | 67 | 1016.0 |
| 20260504040504 | 54 | 171 | 11.0 | 14.0 | 0.00 | 0.00 | 0.00 | 68 | 1015.7 |
| 20260504040004 | 54 | 184 | 12.0 | 14.0 | 0.00 | 0.00 | 0.00 | 69 | 1015.6 |
| 20260504035505 | 54 | 176 | 12.0 | 14.0 | 0.00 | 0.00 | 0.00 | 69 | 1015.6 |
| 20260504035004 | 54 | 180 | 12.0 | 14.0 | 0.00 | 0.00 | 0.00 | 70 | 1015.7 |
| 20260504034504 | 53 | 184 | 11.0 | 13.0 | 0.00 | 0.00 | 0.00 | 71 | 1015.6 |
| 20260504033504 | 52 | 182 | 10.0 | 11.0 | 0.00 | 0.00 | 0.00 | 73 | 1015.4 |
| 20260504033005 | 52 | 184 | 10.0 | 12.0 | 0.00 | 0.00 | 0.00 | 73 | 1015.5 |
| 20260504032504 | 52 | 181 | 7.0 | 11.0 | 0.00 | 0.00 | 0.00 | 72 | 1015.4 |
| 20260504032004 | 52 | 171 | 6.0 | 7.0 | 0.00 | 0.00 | 0.00 | 72 | 1015.4 |
| 20260504031505 | 52 | 157 | 6.0 | 7.0 | 0.00 | 0.00 | 0.00 | 72 | 1015.4 |
| 20260504031005 | 52 | 167 | 4.0 | 6.0 | 0.00 | 0.00 | 0.00 | 72 | 1015.4 |
| 20260504030504 | 52 | 151 | 4.0 | 7.0 | 0.00 | 0.00 | 0.00 | 71 | 1015.4 |
| 20260504030005 | 52 | 154 | 5.0 | 7.0 | 0.00 | 0.00 | 0.00 | 71 | 1015.4 |
| 20260504025504 | 52 | 158 | 2.0 | 5.0 | 0.00 | 0.00 | 0.00 | 70 | 1015.4 |
| 20260504025005 | 53 | 153 | 3.0 | 6.0 | 0.00 | 0.00 | 0.00 | 69 | 1015.3 |
| 20260504024504 | 53 | 164 | 2.0 | 7.0 | 0.00 | 0.00 | 0.00 | 68 | 1015.3 |
| 20260504024005 | 53 | 140 | 3.0 | 7.0 | 0.00 | 0.00 | 0.00 | 67 | 1015.4 |
| 20260504023504 | 52 | 153 | 5.0 | 7.0 | 0.00 | 0.00 | 0.00 | 67 | 1015.4 |
| 20260504023004 | 52 | 156 | 4.0 | 7.0 | 0.00 | 0.00 | 0.00 | 67 | 1015.4 |
| 20260504022504 | 52 | 142 | 3.0 | 5.0 | 0.00 | 0.00 | 0.00 | 66 | 1015.4 |
| 20260504022004 | 53 | 136 | 2.0 | 4.0 | 0.00 | 0.00 | 0.00 | 65 | 1015.4 |
| 20260504021505 | 53 | 125 | 1.0 | 5.0 | 0.00 | 0.00 | 0.00 | 66 | 1015.3 |
| 20260504021004 | 53 | 140 | 2.0 | 7.0 | 0.00 | 0.00 | 0.00 | 66 | 1015.3 |
| 20260504020005 | 53 | 146 | 1.0 | 4.0 | 0.00 | 0.00 | 0.00 | 66 | 1015.2 |
| 20260504015504 | 53 | 149 | 1.0 | 4.0 | 0.00 | 0.00 | 0.00 | 65 | 1015.3 |
| 20260504015005 | 53 | 159 | 2.0 | 5.0 | 0.00 | 0.00 | 0.00 | 63 | 1015.3 |
| 20260504014504 | 54 | 154 | 3.0 | 6.0 | 0.00 | 0.00 | 0.00 | 63 | 1015.4 |
| 20260504014004 | 54 | 163 | 2.0 | 6.0 | 0.00 | 0.00 | 0.00 | 65 | 1015.2 |
| 20260504013504 | 54 | 156 | 4.0 | 8.0 | 0.00 | 0.00 | 0.00 | 62 | 1015.2 |
| 20260504013004 | 54 | 146 | 4.0 | 8.0 | 0.00 | 0.00 | 0.00 | 63 | 1015.2 |
| 20260504012504 | 54 | 177 | 7.0 | 9.0 | 0.00 | 0.00 | 0.00 | 61 | 1015.0 |
| 20260504011504 | 54 | 190 | 6.0 | 8.0 | 0.00 | 0.00 | 0.00 | 60 | 1015.0 |
| 20260504010504 | 55 | 191 | 6.0 | 8.0 | 0.00 | 0.00 | 0.00 | 59 | 1014.9 |
| 20260504010005 | 55 | 196 | 6.0 | 8.0 | 0.00 | 0.00 | 0.00 | 58 | 1014.9 |
| 20260504005504 | 55 | 193 | 6.0 | 8.0 | 0.00 | 0.00 | 0.00 | 57 | 1014.9 |
| 20260504005004 | 56 | 186 | 7.0 | 8.0 | 0.00 | 0.00 | 0.00 | 59 | 1014.8 |
| 20260504004505 | 56 | 205 | 6.0 | 8.0 | 0.00 | 0.00 | 0.00 | 59 | 1014.8 |
| 20260504004004 | 55 | 192 | 6.0 | 8.0 | 0.00 | 0.00 | 0.00 | 58 | 1014.8 |
| 20260504003503 | 55 | 217 | 5.0 | 8.0 | 0.00 | 0.00 | 0.00 | 55 | 1014.7 |
| 20260504003004 | 56 | 219 | 4.0 | 7.0 | 0.00 | 0.00 | 0.00 | 54 | 1014.7 |
| 20260504002505 | 56 | 227 | 3.0 | 5.0 | 0.00 | 0.00 | 0.00 | 54 | 1014.5 |
| 20260504002004 | 56 | 213 | 3.0 | 5.0 | 0.00 | 0.00 | 0.00 | 52 | 1014.5 |
| 20260504001504 | 56 | 246 | 3.0 | 5.0 | 0.00 | 0.00 | 0.00 | 49 | 1014.5 |
| 20260504001004 | 57 | 234 | 3.0 | 5.0 | 0.00 | 0.00 | 0.00 | 47 | 1014.5 |
| 20260504000504 | 57 | 230 | 3.0 | 9.0 | 0.00 | 0.00 | 0.00 | 47 | 1014.2 |
| 20260504000005 | 57 | 239 | 5.0 | 9.0 | 0.00 | 0.00 | 0.00 | 47 | 1014.0 |
| 20260503235504 | 57 | 240 | 3.0 | 7.0 | 0.00 | 0.00 | 0.00 | 46 | 1014.0 |
| 20260503235004 | 57 | 243 | 4.0 | 7.0 | 0.00 | 0.00 | 0.00 | 46 | 1013.9 |